Location: Cuiry
(49.3858°N, 3.7708°E)
Time: 00:22:42
(UTC+00:00)

Thor Agena Rocket - Pass Details

Date: 12 January 2026
Orbit: 755 x 802 km, 99.1° (Epoch: 9 February)

Event Time Altitude Azimuth Distance (km) Brightness Sun altitude
Rises 16:58:44 0° 163° (SSE) 3,209 6.8 -7.8°
Reaches altitude 10° 17:01:01 10° 163° (SSE) 2,284 6.1 -8.2°
Maximum altitude 17:06:03 89° 249° (WSW) 764 3.5 -8.9°
Drops below altitude 10° 17:11:06 10° 344° (NNW) 2,294 5.9 -9.7°
Sets 17:13:24 0° 345° (NNW) 3,225 6.7 -10.0°
